Location: High Meadows Obseravatory
(40.7417°N, 111.5713°W)
Time: 20:00:35
(UTC-07:00)

X-37B - Pass Details

Date: 29 October 2021
Orbit: 330 x 341 km, 45.0° (Epoch: 20 November)

Event Time Altitude Azimuth Distance (km) Brightness Sun altitude
Rises 19:21:37 0° 277° (W) 2,117 6.0 -11.1°
Reaches altitude 10° 19:24:32 10° 244° (WSW) 1,275 4.5 -11.7°
Maximum altitude 19:25:44 12° 219° (SW) 1,161 3.7 -11.9°
Drops below altitude 10° 19:26:57 10° 194° (SSW) 1,271 3.5 -12.1°
Enters shadow 19:30:50 -3° 155° (SSE) 2,463 4.5 -12.9°
